Flag for United Kingdom Weather past 2 weeks in Liverpool, England, United Kingdom

Now
57 °F

Scattered clouds.


Feels Like: 54 °F
Forecast: 51 / 53 °F
Wind: 15 mph from Northwest

Location: Liverpool Airport

Current Time: May 25, 2015 at 3:09:22 PM

Latest Report: May 25, 2015 at 2:50 PM


Visibility: N/A

Pressure: 30.12 "Hg

Humidity: 77%

Dew point: 50 °F

Location of LiverpoolLocation

Historic Weather in Liverpool — Graph

°F

Liverpool temperature yesterday

Maximum temperature yesterday: 57 °F (at 4:20 PM)
Minimum temperature yesterday: 50 °F (at 12:50 AM)
Average temperature yesterday: 53 °F

Past Weeks' High & Low Weather Summary

 TemperatureHumidityPressure
High63 °F (May 11, 12:50 PM)100% (May 18, 12:50 AM)30.30 "Hg (May 18, 12:50 AM)
Low41 °F (May 15, 5:20 AM)42% (May 13, 3:20 PM)29.47 "Hg (May 18, 11:50 PM)
Average53 °F75%30.04 "Hg
* Reported May 10 2:20 PM — May 25 2:20 PM, Liverpool, Weather by CustomWeather, © 2015

Note: Actual official high and low records may vary slightly from our data, if they occured in-between our weather recording intervals... More about our weather records

Advertising

Liverpool weather history for previous 24 hours

 ConditionsComfort  
Time TempWeatherWind HumidityBarometerVisibility
2:20 PM
Mon, May 25
55 °FScattered clouds.17 mph77%30.12 "HgN/A
1:20 PM55 °FScattered clouds.15 mph77%30.12 "HgN/A
12:50 PM54 °FScattered clouds.14 mph82%30.12 "HgN/A
12:20 PM54 °FPartly sunny.15 mph77%30.12 "HgN/A
11:50 AM54 °FScattered clouds.16 mph77%30.12 "HgN/A
11:20 AM54 °FPartly sunny.17 mph77%30.12 "HgN/A
10:50 AM55 °FPartly sunny.16 mph72%30.12 "HgN/A
10:20 AM55 °FPartly sunny.16 mph72%30.09 "HgN/A
9:50 AM54 °FBroken clouds.15 mph77%30.09 "HgN/A
9:20 AM52 °FPartly sunny.15 mph77%30.12 "HgN/A
8:50 AM54 °FPartly sunny.14 mph77%30.12 "HgN/A
8:20 AM52 °FPartly sunny.14 mph77%30.12 "HgN/A
7:50 AM52 °FScattered clouds.14 mph77%30.12 "HgN/A
7:20 AM52 °FScattered clouds.13 mph82%30.09 "HgN/A
6:50 AM52 °FScattered clouds.13 mph82%30.09 "HgN/A
5:50 AM50 °FPassing clouds.10 mph88%30.09 "HgN/A
5:20 AM50 °FPassing clouds.12 mph82%30.09 "HgN/A
4:50 AM52 °FPassing clouds.14 mph77%30.09 "HgN/A
4:20 AM52 °FPassing clouds.13 mph77%30.09 "HgN/A
3:50 AM50 °FPassing clouds.14 mph82%30.09 "HgN/A
3:20 AM50 °FPassing clouds.14 mph82%30.12 "HgN/A
2:50 AM52 °FPassing clouds.12 mph82%30.12 "HgN/A
2:20 AM52 °FPassing clouds.9 mph88%30.09 "HgN/A
1:50 AM52 °FPassing clouds.6 mph88%30.12 "HgN/A
1:20 AM50 °FPassing clouds.5 mph94%30.12 "HgN/A
12:50 AM52 °FPassing clouds.6 mph82%30.12 "HgN/A
12:20 AM52 °FPassing clouds.8 mph82%30.12 "HgN/A
11:50 PM
Sun, May 24
52 °FPassing clouds.7 mph82%30.12 "HgN/A
11:20 PM52 °FPassing clouds.8 mph82%30.12 "HgN/A
10:20 PM54 °FPassing clouds.8 mph72%30.12 "HgN/A
9:50 PM54 °FPartly sunny.12 mph67%30.15 "HgN/A
9:20 PM54 °FPartly sunny.10 mph67%30.12 "HgN/A
8:50 PM54 °FPartly sunny.13 mph67%30.12 "HgN/A
8:20 PM52 °FPartly sunny.13 mph72%30.12 "HgN/A
7:50 PM54 °FScattered clouds.13 mph67%30.12 "HgN/A
7:20 PM55 °FScattered clouds.13 mph67%30.12 "HgN/A
6:50 PM55 °FScattered clouds.13 mph67%30.12 "HgN/A
6:20 PM55 °FScattered clouds.14 mph67%30.12 "HgN/A
5:50 PM55 °FScattered clouds.15 mph67%30.12 "HgN/A
5:20 PM55 °FPartly sunny.14 mph67%30.12 "HgN/A
4:50 PM57 °FScattered clouds.17 mph67%30.12 "HgN/A
4:20 PM57 °FPartly sunny.16 mph67%30.12 "HgN/A
3:50 PM55 °FScattered clouds.15 mph67%30.12 "HgN/A
3:20 PM55 °FScattered clouds.17 mph72%30.12 "HgN/A
Weather by CustomWeather, © 2015

See weather overviewHow to use our weather pages